�N����,����,�g�[���i�䏊�j���x,�g�[�����x,��g�[���i��Q���j���x,����
 2003/10/01, 0:00,23.9,52,21.7,21.6
 2003/10/01, 0:15,23.8,53,21.6,21.6
 2003/10/01, 0:30,23.6,54,21.5,21.6
 2003/10/01, 0:45,23.5,54,21.5,21.6
 2003/10/01, 1:00,23.4,54,21.4,21.6
 2003/10/01, 1:15,23.3,55,21.3,21.6
 2003/10/01, 1:30,23.2,55,21.2,21.6
 2003/10/01, 1:45,23.1,55,21.1,21.6
 2003/10/01, 2:00,22.9,55,21,21.6
 2003/10/01, 2:15,22.7,56,20.8,20.4
 2003/10/01, 2:30,22.6,56,20.7,20.4
 2003/10/01, 2:45,22.7,55,20.7,20.4
 2003/10/01, 3:00,22.7,55,20.6,20.4
 2003/10/01, 3:15,22.6,55,20.5,20.4
 2003/10/01, 3:30,22.6,55,20.4,20.4
 2003/10/01, 3:45,22.2,56,20.3,20.4
 2003/10/01, 4:00,22.1,56,20.3,20.4
 2003/10/01, 4:15,22.3,55,20.2,20.4
 2003/10/01, 4:30,22.1,56,20.1,20.4
 2003/10/01, 4:45,21.9,56,20,20.4
 2003/10/01, 5:00,22,55,20,20.4
 2003/10/01, 5:15,21.8,56,19.9,20.4
 2003/10/01, 5:30,21.4,57,19.8,19.7
 2003/10/01, 5:45,21.4,57,19.7,19.8
 2003/10/01, 6:00,21.8,55,19.6,19.8
 2003/10/01, 6:15,22,54,19.7,19.8
 2003/10/01, 6:30,21.9,54,19.6,19.8
 2003/10/01, 6:45,21.8,53,19.4,19.8
 2003/10/01, 7:00,22.2,53,19.5,21.2
 2003/10/01, 7:15,22.8,52,19.4,21.6
 2003/10/01, 7:30,22.7,52,19.4,21.6
 2003/10/01, 7:45,22.5,54,19.5,21.1
 2003/10/01, 8:00,22.6,55,19.5,21.4
 2003/10/01, 8:15,22.5,54,19.6,21.4
 2003/10/01, 8:30,22.6,55,19.6,21.4
 2003/10/01, 8:45,22.6,54,19.6,21.4
 2003/10/01, 9:00,22.5,55,19.7,21.3
 2003/10/01, 9:15,22.6,54,19.8,21.3
 2003/10/01, 9:30,22.6,54,19.9,21.2
 2003/10/01, 9:45,22.5,55,20,21.2
 2003/10/01,10:00,22.5,55,20.3,21.2
 2003/10/01,10:15,22.7,53,20.3,21.2
 2003/10/01,10:30,22.8,55,20.6,21.2
 2003/10/01,10:45,22.7,55,20.7,21.1
 2003/10/01,11:00,22.8,53,20.9,20.1
 2003/10/01,11:15,22.9,54,21.1,20.3
 2003/10/01,11:30,23.3,53,21.5,20.3
 2003/10/01,11:45,23.3,47,21.9,19.8
 2003/10/01,12:00,24.3,46,22.3,19.8
 2003/10/01,12:15,24.6,48,22.8,20.4
 2003/10/01,12:30,24.9,46,23.3,20.4
 2003/10/01,12:45,25,44,23.8,20.4
 2003/10/01,13:00,25.1,48,24.3,20.4
 2003/10/01,13:15,25.3,43,24.7,20.4
 2003/10/01,13:30,25.6,41,25.2,20.4
 2003/10/01,13:45,25.5,39,25.7,20.3
 2003/10/01,14:00,25.3,39,26,20.4
 2003/10/01,14:15,25.4,41,25.9,19.9
 2003/10/01,14:30,25.5,42,25.7,19.9
 2003/10/01,14:45,26.2,43,25.6,19.9
 2003/10/01,15:00,26.6,43,26,20
 2003/10/01,15:15,26.9,45,26.6,21.2
 2003/10/01,15:30,27.1,45,26.5,21.2
 2003/10/01,15:45,27.3,43,26.5,21.2
 2003/10/01,16:00,27.7,42,26.9,20.4
 2003/10/01,16:15,27.5,41,27.2,20.6
 2003/10/01,16:30,26.6,41,26.9,20.6
 2003/10/01,16:45,26.4,43,25.9,20.6
 2003/10/01,17:00,26.5,43,25.8,20.6
 2003/10/01,17:15,26.5,44,25.5,20.6
 2003/10/01,17:30,27.1,44,25.2,21.3
 2003/10/01,17:45,27,45,25,21.3
 2003/10/01,18:00,27.1,44,24.8,20.9
 2003/10/01,18:15,26.9,46,24.6,21.3
 2003/10/01,18:30,26.7,45,24.4,21.4
 2003/10/01,18:45,26.6,46,24.2,21.4
 2003/10/01,19:00,26.2,49,24.1,21.4
 2003/10/01,19:15,26.2,48,24.4,21.4
 2003/10/01,19:30,26,48,24.4,20.5
 2003/10/01,19:45,25.6,50,24.3,21.4
 2003/10/01,20:00,25.2,52,24.3,20.9
 2003/10/01,20:15,25.2,52,24.4,20.9
 2003/10/01,20:30,25.5,53,24.4,20.9
 2003/10/01,20:45,25.7,51,24.3,20.9
 2003/10/01,21:00,25.7,54,24.3,21
 2003/10/01,21:15,25.6,55,24.3,21
 2003/10/01,21:30,25.8,54,24.2,20.4
 2003/10/01,21:45,25.8,53,24.1,20.4
 2003/10/01,22:00,25.7,53,24,20.5
 2003/10/01,22:15,25.9,54,23.9,21.2
 2003/10/01,22:30,26,54,23.9,21.2
 2003/10/01,22:45,26,53,23.8,21.2
 2003/10/01,23:00,25.9,54,23.8,21.2
 2003/10/01,23:15,25.5,56,23.7,20.6
 2003/10/01,23:30,25,59,23.6,20.9
 2003/10/01,23:45,24.9,59,23.6,20.9
 2003/10/02, 0:00,24.9,58,23.6,20.9
 2003/10/02, 0:15,24.8,59,23.5,20.9
 2003/10/02, 0:30,24.8,59,23.5,20.9
 2003/10/02, 0:45,24.8,59,23.4,20.9
 2003/10/02, 1:00,24.6,60,23.4,20.9
 2003/10/02, 1:15,24.5,60,23.3,21
 2003/10/02, 1:30,24.6,60,23.3,20.2
 2003/10/02, 1:45,24.5,60,23.2,20.6
 2003/10/02, 2:00,24.5,60,23.2,20.6
 2003/10/02, 2:15,24.5,60,23.2,20.6
 2003/10/02, 2:30,24.4,60,23.1,20.6
 2003/10/02, 2:45,24.1,61,23.1,20.7
 2003/10/02, 3:00,24.2,61,23,20.7
 2003/10/02, 3:15,24.2,60,23,20.7
 2003/10/02, 3:30,24.2,60,22.9,20.7
 2003/10/02, 3:45,24.2,60,22.9,20.7
 2003/10/02, 4:00,24.1,60,22.8,20.7
 2003/10/02, 4:15,24.1,60,22.8,20.8
 2003/10/02, 4:30,23.9,61,22.8,20.8
 2003/10/02, 4:45,23.9,61,22.7,20.8
 2003/10/02, 5:00,23.7,61,22.8,20.8
 2003/10/02, 5:15,23.8,60,22.6,20.8
 2003/10/02, 5:30,23.7,61,22.6,20
 2003/10/02, 5:45,23.5,61,22.6,20
 2003/10/02, 6:00,23.4,61,22.6,20
 2003/10/02, 6:15,23.8,60,22.5,20
 2003/10/02, 6:30,24.1,59,22.5,20.1
 2003/10/02, 6:45,24.2,59,22.4,20.1
 2003/10/02, 7:00,24.6,58,22.5,21.5
 2003/10/02, 7:15,24.9,59,22.5,21.9
 2003/10/02, 7:30,24.9,59,22.6,21.5
 2003/10/02, 7:45,25.5,58,22.6,21.2
 2003/10/02, 8:00,25.1,58,22.7,21.2
 2003/10/02, 8:15,24.8,55,22.6,21.2
 2003/10/02, 8:30,24.6,56,22.2,21.3
 2003/10/02, 8:45,24.5,54,22.2,21.2
 2003/10/02, 9:00,24.7,54,22.4,20.8
 2003/10/02, 9:15,24.8,53,22.5,20.8
 2003/10/02, 9:30,24.7,54,22.5,20.8
 2003/10/02, 9:45,24.6,55,22.7,20.8
 2003/10/02,10:00,24.8,55,22.7,20.8
 2003/10/02,10:15,25,55,22.9,20.8
 2003/10/02,10:30,25.3,54,23,20.7
 2003/10/02,10:45,25.8,54,23.1,20.5
 2003/10/02,11:00,26.2,56,23.3,20.6
 2003/10/02,11:15,26.6,56,23.5,20.8
 2003/10/02,11:30,26.7,54,23.6,20.9
 2003/10/02,11:45,29.7,97,23.8,20.9
 2003/10/02,12:00,27.6,51,24.1,20.4
 2003/10/02,12:15,27.5,51,24.4,20.4
 2003/10/02,12:30,27.5,51,24.8,20.4
 2003/10/02,12:45,27.8,48,25.3,20.6
 2003/10/02,13:00,27.7,48,25.5,20.7
 2003/10/02,13:15,27.5,49,25.6,20.7
 2003/10/02,13:30,27.7,49,26.2,20.7
 2003/10/02,13:45,27.9,49,26.6,20.7
 2003/10/02,14:00,27.9,49,27.2,20.8
 2003/10/02,14:15,27.9,50,27.4,20.8
 2003/10/02,14:30,28,50,27.2,20.8
 2003/10/02,14:45,28.1,49,27.1,20.8
 2003/10/02,15:00,27.9,50,27,20.9
 2003/10/02,15:15,27.7,50,27,20.9
 2003/10/02,15:30,27.5,51,26.9,20.9
 2003/10/02,15:45,27.6,51,26.9,20.1
 2003/10/02,16:00,27.7,50,26.8,20.1
 2003/10/02,16:15,27.6,51,26.9,20.1
 2003/10/02,16:30,27.5,51,27,20.2
 2003/10/02,16:45,27.4,51,27,20.1
 2003/10/02,17:00,27.4,51,26.9,20.2
 2003/10/02,17:15,27.2,50,26.7,20.3
 2003/10/02,17:30,26.7,48,26.4,20.6
 2003/10/02,17:45,26.6,49,26.3,20.7
 2003/10/02,18:00,27,49,26.1,20.7
 2003/10/02,18:15,27.1,49,26,20.8
 2003/10/02,18:30,27.5,50,25.8,20.4
 2003/10/02,18:45,27.8,51,25.9,20.4
 2003/10/02,19:00,28.1,51,25.9,20.5
 2003/10/02,19:15,28.1,53,25.9,20.5
 2003/10/02,19:30,28.1,52,25.8,20.5
 2003/10/02,19:45,28,55,25.7,20.6
 2003/10/02,20:00,28.1,54,25.6,20.6
 2003/10/02,20:15,28.1,51,25.6,20.4
 2003/10/02,20:30,28.1,51,25.5,20.5
 2003/10/02,20:45,27.7,52,25.4,20.9
 2003/10/02,21:00,27.8,53,25.3,21
 2003/10/02,21:15,28,52,25.2,21
 2003/10/02,21:30,28.1,53,25.1,21
 2003/10/02,21:45,27.8,54,25,21.1
 2003/10/02,22:00,27.6,54,24.9,21.1
 2003/10/02,22:15,27.5,52,24.8,21.6
 2003/10/02,22:30,27.5,52,24.8,21.8
 2003/10/02,22:45,27.4,54,24.7,21.9
 2003/10/02,23:00,27.7,55,24.7,21.9
 2003/10/02,23:15,27.7,54,24.7,21.9
 2003/10/02,23:30,27.6,54,24.6,21.9
 2003/10/02,23:45,27.2,54,24.5,21.9
 2003/10/03, 0:00,27.1,54,24.4,21.9
 2003/10/03, 0:15,26.9,54,24.3,22
 2003/10/03, 0:30,26.8,54,24.3,22
 2003/10/03, 0:45,26.6,54,24.1,22
 2003/10/03, 1:00,26.3,54,24,22
 2003/10/03, 1:15,26.4,54,24,20.8
 2003/10/03, 1:30,26.3,54,24.1,20.8
 2003/10/03, 1:45,26.4,54,24.1,20.5
 2003/10/03, 2:00,26.1,55,23.9,21.5
 2003/10/03, 2:15,26.2,54,23.8,21.7
 2003/10/03, 2:30,26.1,54,23.7,21.8
 2003/10/03, 2:45,26,54,23.7,21.8
 2003/10/03, 3:00,25.9,53,23.5,21.2
 2003/10/03, 3:15,25.8,53,23.3,21.2
 2003/10/03, 3:30,25.6,53,23.3,21.3
 2003/10/03, 3:45,25.5,53,23.2,21.3
 2003/10/03, 4:00,25.4,53,23.2,21.3
 2003/10/03, 4:15,25.3,53,23.3,21.3
 2003/10/03, 4:30,25.1,53,23.1,21.3
 2003/10/03, 4:45,25,54,23,21.3
 2003/10/03, 5:00,25,54,23.1,21.3
 2003/10/03, 5:15,24.9,54,23.1,21.4
 2003/10/03, 5:30,24.9,54,23.1,21.4
 2003/10/03, 5:45,24.8,54,22.9,21.4
 2003/10/03, 6:00,24.8,54,22.8,21.4
 2003/10/03, 6:15,24.6,54,22.8,21.4
 2003/10/03, 6:30,24.6,54,22.7,20.4
 2003/10/03, 6:45,24.5,55,22.9,21.2
 2003/10/03, 7:00,25.1,56,22.8,21.2
 2003/10/03, 7:15,25.3,56,22.6,21.9
 2003/10/03, 7:30,25,56,22.5,22
 2003/10/03, 7:45,25.3,58,22.5,21.6
 2003/10/03, 8:00,25.9,56,22.5,21.4
 2003/10/03, 8:15,25.7,56,22.6,21.5
 2003/10/03, 8:30,25.4,54,22.6,21.5
 2003/10/03, 8:45,25.4,53,22.6,21.5
 2003/10/03, 9:00,24.5,52,22.6,20.7
 2003/10/03, 9:15,25.1,52,22.6,20.7
 2003/10/03, 9:30,24.8,54,22.6,20.7
 2003/10/03, 9:45,24.1,53,22.6,20.6
 2003/10/03,10:00,24.5,52,22.8,20.6
 2003/10/03,10:15,24.8,52,22.9,20.4
 2003/10/03,10:30,25.2,51,23.1,21.1
 2003/10/03,10:45,25.5,51,23.2,21.1
 2003/10/03,11:00,25.5,52,23.5,21.3
 2003/10/03,11:15,25.6,52,23.7,21.3
 2003/10/03,11:30,25.8,52,24.1,21.3
 2003/10/03,11:45,25.9,51,24.4,21.3
 2003/10/03,12:00,26.2,51,24.7,21.3
 2003/10/03,12:15,26.2,50,25,21.3
 2003/10/03,12:30,26.2,51,25.4,21.3
 2003/10/03,12:45,26.4,49,25.8,21.4
 2003/10/03,13:00,26.7,49,26.3,21.4
 2003/10/03,13:15,27,49,26.7,21.4
 2003/10/03,13:30,27,49,27.1,21.4
 2003/10/03,13:45,26.9,50,27,21.4
 2003/10/03,14:00,26.8,50,26.7,21.4
 2003/10/03,14:15,27,50,26.7,21.4
 2003/10/03,14:30,26.9,50,26.8,21.4
 2003/10/03,14:45,27,50,27.2,21.5
 2003/10/03,15:00,27.4,48,27.6,21.5
 2003/10/03,15:15,27.9,47,28,21.5
 2003/10/03,15:30,28.1,48,28.4,21.5
 2003/10/03,15:45,27.8,49,28.2,21.6
 2003/10/03,16:00,27.6,50,28.2,20.3
 2003/10/03,16:15,28,49,28.1,20.2
 2003/10/03,16:30,27.7,41,27.7,20.3
 2003/10/03,16:45,28.4,85,27.4,20.3
 2003/10/03,17:00,28,40,27.2,21.2
 2003/10/03,17:15,28.2,40,26.9,21.3
 2003/10/03,17:30,27.8,41,26.6,21.3
 2003/10/03,17:45,27.3,43,26.3,21.3
 2003/10/03,18:00,27.1,42,26.1,21.3
 2003/10/03,18:15,27.3,42,26,20.5
 2003/10/03,18:30,27.3,43,25.8,20.8
 2003/10/03,18:45,27.1,44,25.6,21.7
 2003/10/03,19:00,26.9,43,25.5,21.8
 2003/10/03,19:15,26.8,44,25.4,21.8
 2003/10/03,19:30,26.7,44,25.2,21.8
 2003/10/03,19:45,26.6,47,25.1,21.8
 2003/10/03,20:00,26.7,48,25,21.8
 2003/10/03,20:15,26.7,47,24.9,21.9
 2003/10/03,20:30,26.6,47,24.7,21.9
 2003/10/03,20:45,26.7,45,24.6,21.9
 2003/10/03,21:00,26.8,46,24.5,21.1
 2003/10/03,21:15,26.4,45,24.3,21.2
 2003/10/03,21:30,26.2,46,24.2,20.8
 2003/10/03,21:45,26.2,48,24.1,20.9
 2003/10/03,22:00,25.9,50,24,20.9
 2003/10/03,22:15,25.9,50,23.9,20.6
 2003/10/03,22:30,26.2,49,23.8,20.6
 2003/10/03,22:45,26.4,51,23.8,20.7
 2003/10/03,23:00,26.3,51,23.7,20.7
 2003/10/03,23:15,26,53,23.7,20.7
 2003/10/03,23:30,26.1,53,23.6,20.5
 2003/10/03,23:45,26.2,53,23.6,20.8
 2003/10/04, 0:00,25.9,53,23.4,20.9
 2003/10/04, 0:15,25.7,54,23.4,20.9
 2003/10/04, 0:30,25.5,54,23.2,20.9
 2003/10/04, 0:45,25.2,55,23,20.6
 2003/10/04, 1:00,25.2,54,22.9,20.6
 2003/10/04, 1:15,25.3,54,22.8,20.6
 2003/10/04, 1:30,25.2,54,22.7,20.6
 2003/10/04, 1:45,24.8,55,22.6,20.7
 2003/10/04, 2:00,24.7,55,22.7,20.7
 2003/10/04, 2:15,24.8,54,22.5,20.7
 2003/10/04, 2:30,24.8,54,22.4,20.7
 2003/10/04, 2:45,24.6,54,22.3,20.8
 2003/10/04, 3:00,24.4,55,22.2,20.8
 2003/10/04, 3:15,24.3,55,22.2,20.8
 2003/10/04, 3:30,24.3,54,22,20.8
 2003/10/04, 3:45,24.4,54,22.1,20.8
 2003/10/04, 4:00,24.2,54,21.9,20.8
 2003/10/04, 4:15,23.9,54,21.8,20.9
 2003/10/04, 4:30,23.9,54,21.7,20.9
 2003/10/04, 4:45,24.4,57,21.8,20.9
 2003/10/04, 5:00,24.3,55,21.7,20.9
 2003/10/04, 5:15,24.1,55,21.6,20.9
 2003/10/04, 5:30,23.8,55,21.5,20.9
 2003/10/04, 5:45,23.8,55,21.5,20.9
 2003/10/04, 6:00,23.7,55,21.3,21
 2003/10/04, 6:15,23.8,54,21.2,20
 2003/10/04, 6:30,23.8,53,21.2,20
 2003/10/04, 6:45,23.5,54,21.2,20.1
 2003/10/04, 7:00,23.7,54,21.3,20.1
 2003/10/04, 7:15,25.1,52,21.4,20.3
 2003/10/04, 7:30,24.9,53,21.4,20.7
 2003/10/04, 7:45,24.6,53,21.4,20.7
 2003/10/04, 8:00,24,55,21.5,20.7
 2003/10/04, 8:15,24,55,21.4,21
 2003/10/04, 8:30,23.9,56,21.5,21
 2003/10/04, 8:45,24.1,53,21.5,21
 2003/10/04, 9:00,24.6,52,21.6,21
 2003/10/04, 9:15,24.6,51,21.8,21
 2003/10/04, 9:30,23.7,48,21.8,21
 2003/10/04, 9:45,23.9,46,21.9,20.4
 2003/10/04,10:00,23.9,47,21.9,20.3
 2003/10/04,10:15,23.9,43,21.5,20.9
 2003/10/04,10:30,23.6,44,21.3,21.3
 2003/10/04,10:45,23.8,42,21.3,21.3
 2003/10/04,11:00,23.6,42,21.2,21.3
 2003/10/04,11:15,23.5,42,21.4,22
 2003/10/04,11:30,23.7,42,21.6,22
 2003/10/04,11:45,23.2,43,21.1,20.7
 2003/10/04,12:00,23.6,43,21.3,20.7
 2003/10/04,12:15,23.6,43,21.6,20.8
 2003/10/04,12:30,23.1,46,21,20.8
 2003/10/04,12:45,24,46,21.4,20.7
 2003/10/04,13:00,24.2,45,21.3,20.3
 2003/10/04,13:15,24.8,45,21.3,21.1
 2003/10/04,13:30,25.3,45,21.5,21.7
 2003/10/04,13:45,25.5,44,22.2,21.7
 2003/10/04,14:00,25.6,43,22.4,20.9
 2003/10/04,14:15,25.6,42,22.2,20.9
 2003/10/04,14:30,23.1,50,21.8,20.9
 2003/10/04,14:45,25.3,46,22.9,20.2
 2003/10/04,15:00,25.7,45,23.4,20.2
 2003/10/04,15:15,26.5,44,23.2,20.2
 2003/10/04,15:30,26.6,42,23,21.2
 2003/10/04,15:45,26.6,42,23.5,21.2
 2003/10/04,16:00,26.3,42,23.3,21.1
 2003/10/04,16:15,26,43,23.5,21.1
 2003/10/04,16:30,25.7,42,23.5,21.1
 2003/10/04,16:45,27.3,99,23.5,20.4
 2003/10/04,17:00,25.8,41,23.2,21
 2003/10/04,17:15,25.5,42,23.1,21.7
 2003/10/04,17:30,25.4,43,23.5,21.7
 2003/10/04,17:45,25.3,44,23.4,20.7
 2003/10/04,18:00,25.5,44,23.4,20.7
 2003/10/04,18:15,25.2,44,23.3,21.3
 2003/10/04,18:30,25.3,45,23.2,21.3
 2003/10/04,18:45,25,45,23.2,21.3
 2003/10/04,19:00,25.1,46,23.1,21.1
 2003/10/04,19:15,25.4,48,23,21.1
 2003/10/04,19:30,25.7,48,23,20.6
 2003/10/04,19:45,25.9,47,23.1,21.2
 2003/10/04,20:00,25.9,45,23,21.2
 2003/10/04,20:15,26.2,48,23.1,21
 2003/10/04,20:30,26,47,23,21.1
 2003/10/04,20:45,25.6,50,22.9,20.7
 2003/10/04,21:00,25.3,50,22.9,20.7
 2003/10/04,21:15,25.2,50,22.7,20.5
 2003/10/04,21:30,25.8,47,22.7,20.7
 2003/10/04,21:45,25.7,53,22.7,21
 2003/10/04,22:00,26,50,22.6,21.1
 2003/10/04,22:15,25.9,52,22.6,21.1
 2003/10/04,22:30,25.6,52,22.6,20.7
 2003/10/04,22:45,25.2,53,22.6,20.7
 2003/10/04,23:00,25.1,55,22.6,20.7
 2003/10/04,23:15,24.9,56,22.6,20.7
 2003/10/04,23:30,24.8,58,22.5,20.7
 2003/10/04,23:45,24.8,58,22.5,20.7
 2003/10/05, 0:00,24.8,57,22.4,20.2
 2003/10/05, 0:15,24.5,58,22.4,20.2
 2003/10/05, 0:30,24.4,58,22.3,20.2
 2003/10/05, 0:45,24.3,58,22.2,20.2
 2003/10/05, 1:00,24.4,56,22.2,20.2
 2003/10/05, 1:15,24.1,57,22.2,20.2
 2003/10/05, 1:30,23.9,58,22,20.3
 2003/10/05, 1:45,23.9,58,21.9,20.3
 2003/10/05, 2:00,23.9,58,21.9,20.3
 2003/10/05, 2:15,23.8,58,21.9,20.3
 2003/10/05, 2:30,23.6,59,21.8,20.3
 2003/10/05, 2:45,23.6,59,21.7,20.3
 2003/10/05, 3:00,23.5,59,21.7,20.3
 2003/10/05, 3:15,23.3,59,21.7,19.8
 2003/10/05, 3:30,23.1,59,21.5,19.8
 2003/10/05, 3:45,23.1,59,21.5,19.8
 2003/10/05, 4:00,23.1,59,21.5,19.8
 2003/10/05, 4:15,23.1,59,21.5,19.8
 2003/10/05, 4:30,23,59,21.4,19.8
 2003/10/05, 4:45,23,59,21.3,19.8
 2003/10/05, 5:00,22.9,59,21.2,19.8
 2003/10/05, 5:15,22.7,59,21.2,19.8
 2003/10/05, 5:30,22.6,59,21.1,19.8
 2003/10/05, 5:45,22.6,59,21,19.8
 2003/10/05, 6:00,22.6,59,21,19.8
 2003/10/05, 6:15,22.6,59,20.9,19.8
 2003/10/05, 6:30,22.6,59,20.9,19.8
 2003/10/05, 6:45,22.4,59,20.8,19.5
 2003/10/05, 7:00,22.5,58,20.7,19.5
 2003/10/05, 7:15,23.6,58,20.7,19.6
 2003/10/05, 7:30,23.9,54,20.7,20.1
 2003/10/05, 7:45,23.6,54,20.7,20
 2003/10/05, 8:00,23.1,55,20.6,20
 2003/10/05, 8:15,22.6,57,20.6,20
 2003/10/05, 8:30,22.3,53,20.6,20
 2003/10/05, 8:45,22.9,49,20.6,20.9
 2003/10/05, 9:00,23,52,20.7,20.9
 2003/10/05, 9:15,23.3,53,20.8,20.6
 2003/10/05, 9:30,23.2,54,20.8,20.6
 2003/10/05, 9:45,23,51,20.9,20.6
 2003/10/05,10:00,23.4,51,21.1,20.5
 2003/10/05,10:15,23.3,50,21.2,20.8
 2003/10/05,10:30,23,51,21.2,20.3
 2003/10/05,10:45,22.9,48,21.1,20.3
 2003/10/05,11:00,22.8,48,21.3,20.3
 2003/10/05,11:15,23.1,48,21.3,20.3
 2003/10/05,11:30,24.1,46,21.4,20.7
 2003/10/05,11:45,22,46,21.6,20.4
 2003/10/05,12:00,23.8,44,21.8,20.4
 2003/10/05,12:15,23.9,43,22.1,19.9
 2003/10/05,12:30,24.1,42,22.2,19.9
 2003/10/05,12:45,24.7,42,22.5,19.9
 2003/10/05,13:00,24.9,42,22.5,20.4
 2003/10/05,13:15,24.6,42,22.5,20.4
 2003/10/05,13:30,24.6,41,22.6,20.4
 2003/10/05,13:45,24.4,41,22.6,21.2
 2003/10/05,14:00,24.3,41,22.6,21.2
 2003/10/05,14:15,24,41,22.6,21.2
 2003/10/05,14:30,24.1,41,22.6,20.8
 2003/10/05,14:45,24.1,41,22.6,20.8
 2003/10/05,15:00,24,41,22.6,20.8
 2003/10/05,15:15,23.8,42,22.5,20.8
 2003/10/05,15:30,23.6,43,22.5,20.8
 2003/10/05,15:45,23.6,44,22.5,20.9
 2003/10/05,16:00,23.6,43,22.4,20.9
 2003/10/05,16:15,24.4,42,22.5,20.9
 2003/10/05,16:30,24.3,42,22.4,20.9
 2003/10/05,16:45,24.3,45,22.4,20.9
 2003/10/05,17:00,24.2,46,22.4,20.9
 2003/10/05,17:15,24.3,44,22.3,20
 2003/10/05,17:30,24,44,22.2,20
 2003/10/05,17:45,23.8,45,22.1,20
 2003/10/05,18:00,23.9,45,22.1,20.7
 2003/10/05,18:15,25.5,47,22.1,20.7
 2003/10/05,18:30,25.1,45,22.2,20.7
 2003/10/05,18:45,24.7,47,22,20.8
 2003/10/05,19:00,24.6,47,22,20.8
 2003/10/05,19:15,24.7,46,22,20.8
 2003/10/05,19:30,24.7,46,22,20
 2003/10/05,19:45,24.7,48,22,21.1
 2003/10/05,20:00,25,50,22,21.2
 2003/10/05,20:15,25,51,22.1,21.2
 2003/10/05,20:30,25,53,22.2,21.2
 2003/10/05,20:45,24.9,51,22,21.2
 2003/10/05,21:00,25.3,50,22.1,21
 2003/10/05,21:15,25.4,52,22.1,21
 2003/10/05,21:30,24.9,53,22.2,20.5
 2003/10/05,21:45,24.6,53,22.1,20.4
 2003/10/05,22:00,24.6,52,22.2,20.5
 2003/10/05,22:15,24.7,52,22.3,20.3
 2003/10/05,22:30,24.6,52,22.3,20.3
 2003/10/05,22:45,24.7,53,22.4,20.3
 2003/10/05,23:00,24.6,53,22.5,20.7
 2003/10/05,23:15,24.5,56,22.5,20.8
 2003/10/05,23:30,24.5,58,22.6,20.8
 2003/10/05,23:45,24.7,58,22.6,20.8
 2003/10/06, 0:00,24.7,58,22.7,20.7
 2003/10/06, 0:15,24.4,59,22.7,20
 2003/10/06, 0:30,24.1,60,22.8,20
 2003/10/06, 0:45,23.9,61,22.8,20.2
 2003/10/06, 1:00,24,60,22.6,20.2
 2003/10/06, 1:15,24.1,60,22.3,20.2
 2003/10/06, 1:30,23.9,60,22.1,20.2
 2003/10/06, 1:45,23.8,60,21.9,20.2
 2003/10/06, 2:00,23.6,60,21.8,20.2
 2003/10/06, 2:15,23.6,60,21.8,20.2
 2003/10/06, 2:30,23.5,60,21.6,19.7
 2003/10/06, 2:45,23.6,59,21.5,19.7
 2003/10/06, 3:00,23.6,59,21.4,19.7
 2003/10/06, 3:15,23.4,59,21.4,19.7
 2003/10/06, 3:30,23.3,59,21.4,19.7
 2003/10/06, 3:45,23.1,59,21.3,19.7
 2003/10/06, 4:00,23.2,58,21.3,19.7
 2003/10/06, 4:15,23.2,58,21.3,19.8
 2003/10/06, 4:30,23.3,57,21.3,19.8
 2003/10/06, 4:45,23.1,58,21.2,19.8
 2003/10/06, 5:00,23,57,21.3,19.8
 2003/10/06, 5:15,22.9,57,21.2,19.8
 2003/10/06, 5:30,22.9,57,21,19.8
 2003/10/06, 5:45,22.9,57,21,19.8
 2003/10/06, 6:00,22.9,57,21,19.8
 2003/10/06, 6:15,22.8,58,21,19.8
 2003/10/06, 6:30,22.8,58,20.9,19.8
 2003/10/06, 6:45,22.7,58,21,21.2
 2003/10/06, 7:00,22.7,58,20.9,20.8
 2003/10/06, 7:15,23.6,57,20.8,21
 2003/10/06, 7:30,24.3,54,20.7,21
 2003/10/06, 7:45,23.8,58,20.5,21
 2003/10/06, 8:00,23.6,58,20.4,21
 2003/10/06, 8:15,23.4,58,20.6,21.1
 2003/10/06, 8:30,23.8,56,20.6,21.1
 2003/10/06, 8:45,23.4,56,20.5,21.1
 2003/10/06, 9:00,23.3,58,20.5,21
 2003/10/06, 9:15,23.2,59,20.4,21
 2003/10/06, 9:30,23.6,57,20.4,21
 2003/10/06, 9:45,23.7,57,20.4,21
 2003/10/06,10:00,23.4,55,20.4,21
 2003/10/06,10:15,23.5,56,20.4,20.2
 2003/10/06,10:30,23.4,56,20.4,20.2
 2003/10/06,10:45,23.2,56,20.4,19.8
 2003/10/06,11:00,22.9,57,20.3,19.7
 2003/10/06,11:15,22.8,57,20.4,19.7
 2003/10/06,11:30,23,56,20.4,19.7
 2003/10/06,11:45,23,56,20.3,19.7
 2003/10/06,12:00,22.8,56,20.3,20
 2003/10/06,12:15,22.6,56,20.4,20
 2003/10/06,12:30,23.1,55,20.4,19.8
 2003/10/06,12:45,23.1,55,20.5,21.2
 2003/10/06,13:00,22.9,56,20.5,20.4
 2003/10/06,13:15,22.6,55,20.5,20.4
 2003/10/06,13:30,22.6,55,20.5,20.4
 2003/10/06,13:45,22.6,55,20.5,20.4
 2003/10/06,14:00,22.6,54,20.5,20.3
 2003/10/06,14:15,22.6,54,20.4,20.3
 2003/10/06,14:30,22.5,54,20.4,20.3
 2003/10/06,14:45,22.5,54,20.6,20.3
 2003/10/06,15:00,22.4,54,20.5,20.3
 2003/10/06,15:15,22.5,54,20.6,20.3
 2003/10/06,15:30,22.6,54,20.6,19.9
 2003/10/06,15:45,22.8,54,20.7,19.9
 2003/10/06,16:00,22.6,55,20.7,19.5
 2003/10/06,16:15,22.6,54,20.6,19.5
 2003/10/06,16:30,22.6,55,20.8,20
 2003/10/06,16:45,22.9,54,21.3,20
 2003/10/06,17:00,23.1,58,21.3,20.4
 2003/10/06,17:15,23.2,59,21.1,20.4
 2003/10/06,17:30,23.4,63,21.2,20.4
 2003/10/06,17:45,23.7,57,21.3,20.4
 2003/10/06,18:00,25.2,53,21.2,19.9
 2003/10/06,18:15,24.5,50,21.2,19.9
 2003/10/06,18:30,24.1,52,21,20.6
 2003/10/06,18:45,23.8,50,20.8,20.6
 2003/10/06,19:00,23.8,51,20.9,20.6
 2003/10/06,19:15,24,53,21,20.6
 2003/10/06,19:30,23.8,52,21.1,19.8
 2003/10/06,19:45,23.8,53,21,19.8
 2003/10/06,20:00,23.7,53,20.9,19.7
 2003/10/06,20:15,23.1,54,20.9,20.3
 2003/10/06,20:30,23,54,20.8,20.3
 2003/10/06,20:45,23,55,20.8,20.6
 2003/10/06,21:00,23.1,56,20.5,20.6
 2003/10/06,21:15,23.3,55,20.3,20.6
 2003/10/06,21:30,23.6,54,20.2,20.6
 2003/10/06,21:45,23.7,54,20.1,19.8
 2003/10/06,22:00,23.8,56,20.3,19.7
 2003/10/06,22:15,23.6,55,20.5,19.8
 2003/10/06,22:30,23.5,54,20.4,19.8
 2003/10/06,22:45,23.3,56,20.5,19.8
 2003/10/06,23:00,23,58,20.5,19.8
 2003/10/06,23:15,23,57,20.4,19.8
 2003/10/06,23:30,23.2,56,20.5,19.8
 2003/10/06,23:45,23.2,56,20.4,19.8
 2003/10/07, 0:00,23.1,57,20.4,19.4
 2003/10/07, 0:15,22.8,57,20.3,19.7
 2003/10/07, 0:30,22.7,58,20.3,19.7
 2003/10/07, 0:45,22.5,58,20.2,19.6
 2003/10/07, 1:00,22.6,56,20.1,19.6
 2003/10/07, 1:15,22.6,55,20.2,19.6
 2003/10/07, 1:30,22.3,56,20.1,19.6
 2003/10/07, 1:45,22,56,20.1,19.6
 2003/10/07, 2:00,21.9,57,20,19.1
 2003/10/07, 2:15,22.2,55,20,19.1
 2003/10/07, 2:30,22.5,54,19.9,19.1
 2003/10/07, 2:45,22.6,53,19.8,19.2
 2003/10/07, 3:00,22.4,54,19.8,19.1
 2003/10/07, 3:15,22.4,54,19.8,19.2
 2003/10/07, 3:30,22.3,54,19.6,19.2
 2003/10/07, 3:45,22,54,19.7,19.2
 2003/10/07, 4:00,22.1,54,19.6,19.2
 2003/10/07, 4:15,22,54,19.7,19.2
 2003/10/07, 4:30,21.8,54,19.7,19.2
 2003/10/07, 4:45,21.8,54,19.7,19.2
 2003/10/07, 5:00,21.9,54,19.5,19.2
 2003/10/07, 5:15,21.7,54,19.5,19.2
 2003/10/07, 5:30,21.8,54,19.5,19.2
 2003/10/07, 5:45,22.2,57,19.4,19.2
 2003/10/07, 6:00,21.9,56,19.2,19.3
 2003/10/07, 6:15,21.9,55,19.1,19.3
 2003/10/07, 6:30,21.9,54,19.1,19.3
 2003/10/07, 6:45,21.9,55,19.1,19.3
 2003/10/07, 7:00,22.4,55,19.2,19.3
 2003/10/07, 7:15,22.6,54,19.2,19.6
 2003/10/07, 7:30,23,53,19.3,19.6
 2003/10/07, 7:45,22.9,54,19.4,19.5
 2003/10/07, 8:00,22.7,55,19.3,19.4
 2003/10/07, 8:15,22.6,56,19.4,19.4
 2003/10/07, 8:30,22.6,56,19.5,19.4
 2003/10/07, 8:45,22.7,56,19.4,20
 2003/10/07, 9:00,22.7,55,19.4,20
 2003/10/07, 9:15,22.8,56,19.4,20
 2003/10/07, 9:30,22.9,55,19.6,19.7
 2003/10/07, 9:45,22.7,53,19.6,19.7
 2003/10/07,10:00,22.8,53,19.9,19.7
 2003/10/07,10:15,22.6,52,20.1,19.6
 2003/10/07,10:30,22.6,51,20.2,19.6
 2003/10/07,10:45,22.6,51,20.5,19.6
 2003/10/07,11:00,22.7,50,20.7,19
 2003/10/07,11:15,22.8,50,21,19
 2003/10/07,11:30,23,51,21.3,19
 2003/10/07,11:45,23.2,49,21.6,19
 2003/10/07,12:00,23.1,50,21.6,18.9
 2003/10/07,12:15,23.1,50,21.6,18.9
 2003/10/07,12:30,23.3,50,21.8,18.9
 2003/10/07,12:45,23.7,47,21.8,18.9
 2003/10/07,13:00,23.7,46,22.1,19.1
 2003/10/07,13:15,23.8,46,22,19.1
 2003/10/07,13:30,23.8,45,22.4,19.1
 2003/10/07,13:45,24,46,22.7,19.3
 2003/10/07,14:00,23.8,46,22.8,19.3
 2003/10/07,14:15,23.7,49,22.7,20.1
 2003/10/07,14:30,23.7,49,22.8,20.1
 2003/10/07,14:45,23.8,49,22.8,20.1
 2003/10/07,15:00,23.9,49,22.8,20.1
 2003/10/07,15:15,23.5,50,22.9,20.1
 2003/10/07,15:30,23.5,50,22.7,20.1
 2003/10/07,15:45,23.5,50,22.8,19.1
 2003/10/07,16:00,23.8,49,22.8,19.1
 2003/10/07,16:15,23.9,49,22.7,19
 2003/10/07,16:30,24.3,50,22.5,19.5
 2003/10/07,16:45,24.1,51,22.4,19.5
 2003/10/07,17:00,24.4,49,22.4,19.8
 2003/10/07,17:15,24.1,50,22.3,19.6
 2003/10/07,17:30,23.9,51,22.3,19.9
 2003/10/07,17:45,23.8,51,22.3,19.9
 2003/10/07,18:00,24.1,50,22.3,19.9
 2003/10/07,18:15,24.6,50,22.2,19.9
 2003/10/07,18:30,24.1,51,22.2,19.4
 2003/10/07,18:45,24.1,52,22.2,20
 2003/10/07,19:00,24.4,52,22.3,20
 2003/10/07,19:15,24.6,50,22.1,20.1
 2003/10/07,19:30,24.8,50,22.1,20.5
 2003/10/07,19:45,24.6,51,22.2,20.5